{"data":{"norad_id":68854,"epoch":"2026-05-25T04:00:03.998880Z","epoch_age_seconds":71203,"freshness":"FRESH","line1":"1 68854U 26094R   26145.16671295  .00000672  00000+0  14018-4 0  9999","line2":"2 68854  97.2848 159.9363 0001160  80.0564 162.2750 15.49183903  5672","mean_motion":15.49183903,"eccentricity":0.000116,"inclination_deg":97.2848,"raan_deg":159.9363,"arg_perigee_deg":80.0564,"mean_anomaly_deg":162.275,"bstar":1.4018e-5,"rev_number":567,"period_min":92.952166441404,"perigee_km":418.32369650899,"apogee_km":419.90065831815,"semimajor_km":6797.2491774136,"source":"CELESTRAK","updated_at":"2026-05-25T13:38:22.048809Z"}}